User: anonymous   Login
Location: Enborne
(51.3833°N, 1.3667°W)
Time: 19:34:47
(UTC+00:00)
Language:

NOSS 3-1 (A) - Orbit

View from above orbital plane
View from above orbital plane
View from above satellite
View from above satellite

Ground track
Ground track

The orbit data is extracted from the following two-line orbital elements,

1 26905U 01040A   20328.18944302 0.00000000  00000-0  00000-0 0    06
2 26905  63.4082  65.5130 0484523   1.4461 358.5539 13.40785889    00
Epoch (UTC): 23 November 2020 04:32:47
Eccentricity: 0.0484523
inclination: 63.4082°
perigee height: 744 km
apogee height: 1469 km
right ascension of ascending node: 65.5130°
argument of perigee: 1.4461°
revolutions per day: 13.40785889
mean anomaly at epoch: 358.5539°
orbit number at epoch: 0

The dashed part of the orbit path shows where the satellite is in the earth's shadow,  

DLR